SCOUT X-4 R/B, 871

Orbit data source: Space-Track

SCOUT X-4 R/B, 871 is space debris in LEO originally from a launch on Tue, 25 Aug 1964 UTC launched from the Air Force Western Test Range (AFWTR). Debris objects in space refer to the collection of defunct objects orbiting the Earth. Examples of debris include non-operational satellites, rocket bodies, and fragments generated from explosions, collisions, or faulty payload assembly.

Loading next visibility...
Identifier
871, 1964-051B
Orbit
LEO
Country
Flag of USUS
Related business
Manufacturer
ABL
Mission
Spacecraft
Bus & Motor
ALTAIR, Unknown motor
Mass
33 kg wet, 33 kg dry
Launch date (UTC)
1964-08-25 (62 years ago)
Launch vehicle
Unknown
Launch site
Air Force Western Test Range (AFWTR)
Object type
Payload
Rocket body
Debris
Shape & HBR
CYL, 1.1 m
Radar Cross Section
Medium (>0.1 m² and <1 m²)

Expand to show TLE details & history
Last TLE update: 10 hours ago

TLE from 10 hours ago
0 SCOUT X-4 R/B
1 00871U 64051B   26257.89735291  .00000190  00000-0  11922-3 0  9996
2 00871  79.8959 328.6868 0085131 266.1791  92.9634 14.00720320157427
Epoch: 2026-09-14T21:32Z
TLE epoch observation values (Epoch: 2026-09-14T21:32:11.291Z)
Latitude
0.00003°
Longitude
11.7687°
Altitude
897.867 km
Speed
7.401 km/s
True Right ascension
21h 54m 44s
True Declination
0° 00' 00"
Sunlit
Object was in full shadow at epoch
Visualization orbit readout
Latitude
Unknown
Longitude
Unknown
Altitude
Unknown
Speed
Unknown
Apparent Right ascension
Unknown
Apparent Declination
Unknown
Sunlit
N/A
Visualization observer readout
Local Sidereal Time
00:00:14
Azimuth
Unknown
Elevation
Unknown
Doppler factor
Unknown
Orbital elements
Apogee altitude
950.419 km
Perigee altitude
826.695 km
Semi-major axis
7,266.694 km
Eccentricity
0.00851
Inclination
79.8959°
RAAN
328.6868°
Arg. of periapsis
266.1791°
True anomaly
93.93704°
Mean anomaly
92.9634°
Eccentric anomaly
93.45028°
Mean motion
3.50379 °/min
Orbital period
102.75 mins
BSTAR
0.00011922
Loading maneuver chart data...
Computing Atmospheric mass density...
Loading historical data...
Loading historical data...
Loading historical data...
Loading historical data...
Loading historical data...
Loading historical data...
Loading historical data...

Documentation

Showing up to 5 results
|